Regional Weather Roundup
Issued by NWS

Home | Current Version | Previous Version | Text Only | Print | Product List | Glossary Off
Versions: 1 2 3 4 5 6 7 8 9 10 11 12 13 14 15 16 17 18 19 20 21 22 23 24 25 26 27 28 29 30 31 32 33 34 35 36 37 38 39 40 41 42 43 44 45 46 47 48 49 50

716
ASUS45 KPSR 150910
RWRAZ

ARIZONA HOURLY REGIONAL WEATHER ROUNDUP
NATIONAL WEATHER SERVICE PHOENIX AZ
200 AM MST FRI DEC 15 2017

NOTE: FAIR INDICATES FEW OR NO CLOUDS BELOW 12,000 FEET WITH NO
SIGNIFICANT WEATHER AND/OR OBSTRUCTIONS TO VISIBILITY.

AZZ001>003-036-151000-
NORTHWEST ARIZONA

CITY           SKY/WX    TMP DP  RH WIND       PRES   REMARKS
BULLHEAD CITY  CLEAR     61  19  20 N28       30.19R
KINGMAN        CLEAR     38  15  39 E7        30.30R WCI  33
$$

AZZ004>008-015-016-018-151000-
NORTH CENTRAL ARIZONA

CITY           SKY/WX    TMP DP  RH WIND       PRES   REMARKS
GRAND CANYON   MOCLDY    34   0  23 N7        30.34S WCI  28
WILLIAMS       PTCLDY    27  -4  26 CALM      30.30R
PRESCOTT       PTCLDY    31   8  38 S9        30.31R WCI  23
FLAGSTAFF      PTCLDY    36  -9  14 NE21      30.30S WCI  25
PAYSON         CLEAR     43   3  19 NE6G18    30.26R
PAGE           PTCLDY    35  11  36 SE3       30.34S
$$

AZZ009>014-017-151000-
NORTHEAST ARIZONA

CITY           SKY/WX    TMP DP  RH WIND       PRES   REMARKS
WINSLOW        CLOUDY    20   6  55 W6        30.34R WCI  12
SAINT JOHNS    CLOUDY    23  12  62 S5        30.30R WCI  17
SHOW LOW       DRIZZLE   23  14  68 E6        30.32R WCI  16
$$

AZZ540-542>544-546-548-151000-
GREATER PHOENIX AREA

CITY           SKY/WX    TMP DP  RH WIND       PRES   REMARKS
PHOENIX        CLEAR     59  22  24 W5        30.12R
BUCKEYE        CLEAR     64  12  13 N13       30.13R
LUKE AFB       CLEAR     60  16  18 NE12      30.12R
DEER VALLEY    CLEAR     58  15  18 N17       30.14R
SCOTTSDALE     CLEAR     60  20  21 VRB3      30.15R
MESA-GATEWAY   CLEAR     61  21  21 NE8       30.14R
$$

AZZ539-553-151000-
SOUTHWEST MARICOPA COUNTY AND PINAL COUNTY

CITY           SKY/WX    TMP DP  RH WIND       PRES   REMARKS
CASA GRANDE    NOT AVBL
$$

AZZ503-504-507>509-151000-
SOUTHEAST ARIZONA

CITY           SKY/WX    TMP DP  RH WIND       PRES   REMARKS
TUCSON         CLEAR     40  14  34 SW6       30.14R
DAVIS-MONTHAN  CLEAR     51  19  28 E7        30.12R
NOGALES        CLEAR     47  21  35 NE8       30.13S
SIERRA VISTA   CLEAR     41  21  45 CALM      30.18R
DOUGLAS        CLEAR     45  35  68 S7        30.18R
SAFFORD        CLEAR     39  13  34 E8        30.21R WCI  33
$$

AZZ532-151000-
SOUTHWEST ARIZONA

CITY           SKY/WX    TMP DP  RH WIND       PRES   REMARKS
YUMA           CLEAR     64  19  17 NW13      30.12R
$$

CAZ041-043-047-048-061-525>527-560>570-151000-
SOUTHERN CALIFORNIA

CITY           SKY/WX    TMP DP  RH WIND       PRES   REMARKS
DOWNTOWN L.A.  CLEAR     53  36  52 CALM      30.09S
L.A. AIRPORT   PTCLDY    62  32  32 CALM      30.10R
SAN DIEGO      CLEAR     53  35  50 CALM      30.10S
BURBANK        CLEAR     56  20  24 NW3       30.10F
ONTARIO        PTCLDY    60   8  12 VRB7      30.12R
RIVERSIDE      CLEAR     62  16  16 E7        30.13S
PALM SPRINGS   CLEAR     72  13  10 NW7       30.17S
EL CENTRO NAS  CLEAR     53  19  26 W9        30.15S
IMPERIAL       CLEAR     63  24  22 N9        30.12S
BLYTHE         CLEAR     59  17  19 N13       30.17R
NEEDLES        CLEAR     61  19  19 NW9       30.21S
$$

NVZ020-UTZ003-151000-
SOUTHERN NEVADA-UTAH

CITY           SKY/WX    TMP DP  RH WIND       PRES   REMARKS
LAS VEGAS      CLEAR     48  20  32 W6        30.29S
SALT LAKE CITY PTCLDY    28  24  85 SE3       30.40S
$$

NMZ009-TXZ055-151000-
NEW MEXICO-WEST TEXAS

CITY           SKY/WX    TMP DP  RH WIND       PRES   REMARKS
ALBUQUERQUE    CLOUDY    29  15  56 N8        30.32R WCI  21
EL PASO        PTCLDY    40  21  46 NE7       30.27R
$$


........................KEY........................
SKY/WX - SKY CONDITION/WEATHER
TMP    - TEMPERATURE IN FAHRENHEIT
DP     - DEW POINT IN FAHRENHEIT
RH     - RELATIVE HUMIDITY IN PERCENT
WIND   - DIRECTION AND SPEED IN MILES PER HOUR (MPH)
VRB    - VARIABLE WIND DIRECTION
PRES   - MEAN SEA LEVEL PRESSURE IN INCHES OF MERCURY
         F - FALLING PRESSURE   R - RISING PRESSURE
         S - STEADY PRESSURE
VSB    - VISIBILITY IN MILES
HX     - HEAT INDEX IN FAHRENHEIT
WCI    - WIND CHILL INDEX IN FAHRENHEIT
TC     - TEMPERATURE IN CELSIUS WHICH IS ALSO KNOWN AS
         TEMPERATURE IN CENTIGRADE
AFB    - AIR FORCE BASE
         LUKE AFB IS LUKE AIR FORCE BASE
         DAVIS-MONTHAN IS DAVIS-MONTHAN AIR FORCE BASE
NAS    - NAVAL AIR STATION
         EL CENTRO NAS IS EL CENTRO NAVAL AIR STATION
N/A    - NOT AVAILABLE





USA.gov is the U.S. government's official web portal to all federal, state and local government web resources and services.